Location: Wangen/Allg�u
(47.6873°N, 9.8307°E)
Time: 12:21:39
(UTC+01:00)

ISS - Pass Details

Date: 07 December 2021
Orbit: 413 x 422 km, 51.6° (Epoch: 27 January)

Event Time Altitude Azimuth Distance (km) Brightness Sun altitude
Rises 17:00:15 0° 293° (WNW) 2,390 0.7 -5.3°
Reaches altitude 10° 17:02:22 10° 292° (WNW) 1,521 -0.3 -5.7°
Maximum altitude 17:05:46 78° 206° (SSW) 439 -3.5 -6.2°
Drops below altitude 10° 17:09:09 10° 121° (ESE) 1,507 -1.3 -6.7°
Enters shadow 17:12:20 -4° 119° (ESE) 2,818 0.1 -7.1°
